Tracking 19709 objects as of 17-Jun-2019
HD Live streaming from Space Station
objects crossing your sky now

DELTA 1 DEB

Track DELTA 1 DEB now!
10-day predictions


NORAD ID: 7076
Int'l Code: 1973-086BU
Perigee: 1,504.5 km
Apogee: 1,525.4 km
Inclination: 102.0 °
Period: 116.2 minutes
Semi major axis: 7885 km
RCS: 0.1249 m2 (medium)
Launch date: November 6, 1973
Source: United States (US)
Launch site: AIR FORCE WESTERN TEST RANGE (AFWTR)

Note: This is SATELLITE DEBRIS
aabbcc
Your satellite tracking list
Your tracking list is empty




NASA's NSSDC Master Catalog

Two Line Element Set (TLE):
1  7076U 73086BU  19168.89570329 -.00000008  00000-0  27754-3 0  9999
2  7076 101.9877 136.8954 0013213 103.4894 312.8100 12.39717990 63776
Source of the keplerian elements: AFSPC